Terug naar catalogus

DUMMY MASS 1

ActiefWetenschapPO
NORAD 24925·PAYLOAD·🇨🇳 China

Gelanceerd Sep 1, 1997 vanaf Taiyuan Satellite Launch Center

Loading…

Volgende Passages (komende 24 uur)

TLE

VersSource: Space-Track

Epoch: Sep 14, 2026, 01:11 UTC

1 24925U 97048A   26257.04940491  .00000244  00000-0  23871-4 0  9998
2 24925  86.3298 285.2952 0006018 358.1234   1.9967 14.87390096572580

Volg DUMMY MASS 1 in realtime met AllMySat

Download on the App Store